Location: Nairn
(57.5833°N, 3.8667°W)
Time: 23:18:15
(UTC+00:00)

Tiros 1 - Pass Details

Date: 03 December 2020
Orbit: 630 x 663 km, 48.4° (Epoch: 22 January)

Event Time Altitude Azimuth Distance (km) Brightness Sun altitude
Rises 16:52:14 0° 252° (WSW) 2,995 12.7 -9.4°
Reaches altitude 10° 16:54:51 10° 240° (WSW) 2,080 11.4 -9.7°
Maximum altitude 16:58:53 27° 183° (S) 1,254 9.0 -10.2°
Drops below altitude 10° 17:02:55 10° 126° (SE) 2,069 9.5 -10.7°
Enters shadow 17:04:59 - 116° (ESE) 2,783 10.0 -10.9°
Sets 17:05:30 0° 114° (ESE) 2,975 - -11.0°
